Location: Street
(51.1247°N, 2.7429°W)
Time: 22:36:30
(UTC+01:00)

RS-15 - Visible Passes

Search period start: 14 April 2024 00:00
Search period end: 24 April 2024 00:00
Orbit: 1895 x 2150 km, 64.8° (Epoch: 14 April)

Date Brightness Start Highest point End Pass type
(mag) Time Alt. Az. Time Alt. Az. Time Alt. Az.
14 Apr 8.4 01:00:09 10° WSW 01:11:50 59° NNW 01:23:01 10° NE visible
14 Apr 9.0 03:16:07 10° WNW 03:26:54 41° N 03:37:15 10° ENE visible
14 Apr 8.7 05:30:50 10° NW 05:42:01 57° NNE 05:52:46 10° ESE visible
14 Apr 8.1 22:11:55 10° S 22:23:15 52° ESE 22:34:06 10° NE visible
15 Apr 8.3 00:23:38 10° WSW 00:35:30 68° NW 00:46:50 10° NE visible
15 Apr 9.0 02:39:21 10° WNW 02:50:14 42° N 03:00:40 10° ENE visible
15 Apr 8.8 04:54:31 10° NW 05:05:34 51° NNE 05:16:11 10° E visible
15 Apr 8.3 21:36:45 10° S 21:47:31 42° ESE 21:57:52 10° NE visible
15 Apr 8.1 23:47:17 10° SW 23:59:15 78° NW 00:10:41 10° NE visible
16 Apr 8.9 02:02:32 10° W 02:13:34 44° NNW 02:24:08 10° ENE visible
16 Apr 9.0 04:18:07 10° NW 04:29:02 46° NNE 04:39:31 10° E visible
16 Apr 8.5 21:01:55 10° SSE 21:11:55 33° ESE 21:21:32 10° NE visible
16 Apr 8.0 23:11:06 10° SW 23:23:06 90° NW 23:34:34 10° NE visible
17 Apr 8.8 01:25:44 10° W 01:36:57 47° NNW 01:47:43 10° NE visible
17 Apr 9.0 03:41:36 10° WNW 03:52:25 43° NNE 04:02:48 10° E visible
17 Apr 8.0 22:35:08 10° SSW 22:47:04 78° SE 22:58:27 10° NE visible
18 Apr 8.7 00:48:59 10° WSW 01:00:25 52° NNW 01:11:23 10° NE visible
18 Apr 9.1 03:05:00 10° WNW 03:15:46 42° N 03:26:06 10° ENE visible
18 Apr 8.5 05:19:11 10° NW 05:30:29 66° NE 05:41:22 10° ESE visible
18 Apr 8.0 21:59:23 10° SSW 22:11:07 65° ESE 22:22:21 10° NE visible
19 Apr 8.5 00:12:19 10° WSW 00:23:58 58° NNW 00:35:07 10° NE visible
19 Apr 9.1 02:28:18 10° WNW 02:39:04 41° N 02:49:24 10° ENE visible
19 Apr 8.6 04:42:57 10° NW 04:54:09 58° NNE 05:04:55 10° ESE visible
19 Apr 8.1 21:23:54 10° S 21:35:17 53° ESE 21:46:12 10° NE visible
19 Apr 8.4 23:35:47 10° WSW 23:47:37 66° NW 23:58:54 10° NE visible
20 Apr 9.1 01:51:32 10° WNW 02:02:23 42° N 02:12:48 10° ENE visible
20 Apr 8.8 04:06:38 10° NW 04:17:42 52° NNE 04:28:20 10° ESE visible
20 Apr 8.3 20:48:41 10° S 20:59:33 43° ESE 21:09:58 10° NE visible
20 Apr 8.2 22:59:24 10° SW 23:11:21 76° NW 23:22:45 10° NE visible
21 Apr 9.0 01:14:44 10° W 01:25:44 44° NNW 01:36:16 10° ENE visible
21 Apr 8.9 03:30:15 10° NW 03:41:10 47° NNE 03:51:41 10° E visible
21 Apr 8.1 22:23:12 10° SW 22:35:11 88° NW 22:46:38 10° NE visible
22 Apr 8.9 00:37:56 10° W 00:49:06 47° NNW 00:59:49 10° NE visible
22 Apr 9.0 02:53:45 10° WNW 03:04:34 44° NNE 03:14:58 10° E visible
22 Apr 8.2 05:07:28 10° NW 05:18:49 78° NE 05:29:46 10° SE visible
22 Apr 8.0 21:47:12 10° SSW 21:59:07 80° SE 22:10:32 10° NE visible
23 Apr 8.8 00:01:10 10° W 00:12:33 51° NNW 00:23:28 10° NE visible
23 Apr 9.1 02:17:10 10° WNW 02:27:56 42° N 02:38:15 10° ENE visible
23 Apr 8.4 04:31:17 10° NW 04:42:35 68° NE 04:53:28 10° ESE visible
23 Apr 8.1 21:11:25 10° SSW 21:23:11 67° ESE 21:34:25 10° NE visible
23 Apr 8.6 23:24:29 10° WSW 23:36:05 57° NNW 23:47:12 10° NE visible
